User: anonymous   Login
Location: Bowman Observatory
(41.0326°N, 73.6210°W)
Time: 08:57:01
(UTC-04:00)
Language:

Cosmos 2298 Rocket - Orbit

View from above orbital plane
View from above orbital plane
View from above satellite
View from above satellite

Ground track
Ground track

The orbit data is extracted from the following two-line orbital elements,

1 23432U 94083B   14303.16473733  .00000213  00000-0  86699-4 0  9799
2 23432 074.0333 255.1841 0006220 325.8567 132.8932 14.33302105 38605
Epoch (UTC): 30 October 2014 03:57:13
Eccentricity: 0.0006220
inclination: 74.0333°
perigee height: 776 km
apogee height: 785 km
right ascension of ascending node: 255.1841°
argument of perigee: 325.8567°
revolutions per day: 14.33302105
mean anomaly at epoch: 132.8932°
orbit number at epoch: 3860

The dashed part of the orbit path shows where the satellite is in the earth's shadow,  

DLR